User: anonymous   Login
Location: Brno
(49.2000°N, 16.6330°E)
Time: 20:16:52
(UTC+01:00)
Language:

Cosmos 2227 - Orbit

View from above orbital plane
View from above orbital plane
View from above satellite
View from above satellite

Ground track
Ground track

The orbit data is extracted from the following two-line orbital elements,

1 22284U 92093A   14331.82575332 -.00000121  00000-0 -39138-4 0   320
2 22284 070.9784 029.9354 0017658 151.1048 334.5829 14.13182078130928
Epoch (UTC): 27 November 2014 19:49:05
Eccentricity: 0.0017658
inclination: 70.9784°
perigee height: 836 km
apogee height: 861 km
right ascension of ascending node: 29.9354°
argument of perigee: 151.1048°
revolutions per day: 14.13182078
mean anomaly at epoch: 334.5829°
orbit number at epoch: 13092

The dashed part of the orbit path shows where the satellite is in the earth's shadow,  

DLR